Meath Environmental Platform

Observations for Trim Patrick St

Time AQI Temp °C Hum % Pres Pa CO μg/m³ H₂S μg/m³ NO μg/m³ NO₂ μg/m³ O₃ μg/m³ SO₂ μg/m³ PM1 μg/m³ PM2.5 μg/m³ PM10 μg/m³
Saturday 1 August 2026
05:01 2 10.9 80 38,460 0.39 0 4.16 14.41 26.25 0 5.43 8.68 9.55
05:00 2 10.9 81 38,460 0.38 1.63 4.16 18.52 33.09 0 5.43 8.68 9.54
04:59 2 11 80 38,460 0.38 1.71 4.18 19.08 32.11 0 5.43 9.41 10.35
04:58 2 10.9 80 38,460 0.39 1.63 4.3 16.34 29.31 0 3.71 8.05 8.86
04:57 2 11 79 38,460 0.37 1.95 4.27 23.99 37.63 0 5.43 10.9 11.98
04:56 2 11 80 38,460 0.38 0.61 4.26 16.34 28.42 0 4.57 8.01 8.81
04:55 2 11 80 38,460 0.38 0.76 4.25 15.68 29.92 0 3.71 7.34 8.08
04:54 2 11 78 38,460 0.38 0.86 4.24 18.61 20.33 0 4.57 8.89 9.78
04:53 2 11 79 38,460 0.39 0.73 4.15 14.79 28.07 0 4.57 8.09 8.9
04:52 2 11 80 38,460 0.39 1.69 4.11 19 34.31 0 5.43 9.44 10.39
04:51 2 11 80 38,460 0.39 0.97 4.12 15.06 28.18 0 5.43 10.15 11.16
04:50 2 11 79 38,460 0.39 2.69 4.19 18.05 28.35 0 4.57 8.12 8.93
04:49 2 11 76 38,460 0.41 2.46 4.25 19.51 19.58 0 5.43 9.02 9.93
04:48 2 11 79 38,460 0.4 3.03 4.2 21.42 43.52 0 4.57 8.79 9.67
04:47 2 11.1 79 38,460 0.4 1.43 4.19 16.28 30.58 0 2.86 7.39 8.13
04:46 2 11 80 38,460 0.38 1.89 4.21 18.81 30.45 0 4.57 8.72 9.59
04:45 2 11.1 80 38,460 0.36 2.13 4.11 14.97 23.79 0 3.71 8.04 8.85
04:42 2 11.1 79 38,460 0.36 2.03 4.16 20.31 43.72 0 6.29 10.22 11.24
04:41 2 11.1 79 38,460 0.37 2.36 4.13 19.73 36.19 0 4.57 8.81 9.69
04:40 2 11.1 77 38,460 0.37 1.59 4.19 16.01 25.49 0 5.43 8.93 9.83